SL-16 DEB, 39720

Orbit data source: Space-Track

SL-16 DEB, 39720 is space debris in LEO originally from a launch on Fri, 25 Dec 1992 UTC launched from the Tyuratam Missile And Space Complex (TTMTR). Debris objects in space refer to the collection of defunct objects orbiting the Earth. Examples of debris include non-operational satellites, rocket bodies, and fragments generated from explosions, collisions, or faulty payload assembly.

Loading next visibility...
Identifier
39720, 1992-093KL
Orbit
LEO
Country
Flag of CISCIS
Related business
Manufacturer
Unknown
Mission
Spacecraft
Bus & Motor
Unknown
Mass
Unknown
Launch date (UTC)
1992-12-25 (33 years ago)
Launch vehicle
Unknown
Launch site
Tyuratam Missile And Space Complex (TTMTR)
Object type
Payload
Rocket body
Debris
Shape & HBR
Unknown shape, 0.1 m
Radar Cross Section
Small (<0.1 m²)

Expand to show TLE details & history
Last TLE update: 3 days ago

TLE from 3 days ago
0 SL-16 DEB
1 39720U 92093KL  26130.02541744  .00001691  00000-0  37428-3 0  9997
2 39720  70.7863  44.2295 0025695 270.3345  89.4854 14.58572379636858
Epoch: 2026-05-10T00:36Z
TLE epoch observation values (Epoch: 2026-05-10T00:36:36.066Z)
Latitude
-0.00011°
Longitude
167.24477°
Altitude
700.106 km
Speed
7.506 km/s
True Right ascension
02h 56m 55s
True Declination
0° 00' 00"
Sunlit
Object was in daylight at epoch
Visualization orbit readout
Latitude
Unknown
Longitude
Unknown
Altitude
Unknown
Speed
Unknown
Apparent Right ascension
Unknown
Apparent Declination
Unknown
Sunlit
N/A
Visualization observer readout
Local Sidereal Time
12:09:47
Azimuth
Unknown
Elevation
Unknown
Doppler factor
Unknown
Orbital elements
Apogee altitude
713.867 km
Perigee altitude
677.515 km
Semi-major axis
7,073.828 km
Eccentricity
0.00257
Inclination
70.7863°
RAAN
44.2295°
Arg. of periapsis
270.3345°
True anomaly
89.77984°
Mean anomaly
89.4854°
Eccentric anomaly
89.63262°
Mean motion
3.64806 °/min
Orbital period
98.68 mins
BSTAR
0.00037428
Loading maneuver chart data...
Computing Atmospheric mass density...
Loading historical data...
Loading historical data...
Loading historical data...
Loading historical data...
Loading historical data...
Loading historical data...
Loading historical data...

Documentation

Showing up to 5 results
|